Tracking 20719 objects as of 24-May-2020
HD Live streaming from Space Station
objects crossing your sky now

CZ-3A R/B

Track CZ-3A R/B now!
10-day predictions


NORAD ID: 37235
Int'l Code: 2010-064B
Perigee: 149.9 km
Apogee: 11,475.1 km
Inclination: 24.2 °
Period: 223.1 minutes
Semi major axis: 12183 km
RCS: 5.0119 m2 (large)
Launch date: November 24, 2010
Source: People's Republic of China (PRC)
Launch site: Xichang Space Center, China (XSC)

Note: This is a ROCKET BODY
aabbcc
Your satellite tracking list
Your tracking list is empty




NASA's NSSDC Master Catalog

Two Line Element Set (TLE):
1 37235U 10064B   20143.64535803  .00397552 -43933-6  45055-3 0  9997
2 37235  24.2203 292.6966 4647754 313.7584  16.0723  6.45569338114030
Source of the keplerian elements: AFSPC